Location: Fort Wayne
(41.1310°N, 85.1290°W)
Time: 21:13:51
(UTC-04:00)

BREEZE-M DEB (TANK) - Visible Passes

Search period start: 28 August 2014 00:00
Search period end: 07 September 2014 00:00
Orbit: 275 x 13667 km, 49.6° (Epoch: 26 August)

Date Brightness Start Highest point End Pass type
(mag) Time Alt. Az. Time Alt. Az. Time Alt. Az.
28 Aug 8.9 18:29:59 10° WNW 19:11:45 86° SW 21:11:31 10° SSE visible
28 Aug 9.2 23:11:56 10° WNW 23:57:59 25° W 01:08:13 10° SW visible
29 Aug 8.9 20:11:49 10° NW 21:04:34 62° WSW 22:50:53 10° S visible
30 Aug 9.1 21:56:30 10° NW 22:48:33 38° W 00:16:29 10° SSW visible
31 Aug 8.9 19:01:21 10° WNW 19:47:34 75° SW 21:42:04 10° SSE visible
31 Aug 9.6 23:54:08 10° WNW 00:24:15 15° W 01:04:31 10° WSW visible
01 Sep 9.0 20:43:52 10° NW 21:36:20 50° WSW 23:15:49 10° SSW visible
02 Sep 8.7 17:51:21 10° WNW 18:28:51 87° SW 20:29:46 10° SSE visible
02 Sep 9.3 22:31:28 10° WNW 23:16:33 26° W 00:28:58 10° SW visible
03 Sep 9.0 19:32:34 10° NW 20:21:19 64° WSW 22:09:56 10° S visible
04 Sep 9.2 21:16:24 10° NW 22:06:09 39° W 23:36:08 10° SSW visible
05 Sep 8.9 18:22:01 10° WNW 19:03:56 76° SW 21:00:11 10° SSE visible
05 Sep 9.7 23:11:32 10° WNW 23:42:57 16° W 00:27:01 10° WSW visible
06 Sep 9.1 20:03:51 10° NW 20:53:02 52° WSW 22:34:37 10° SSW visible
